{"data":{"norad_id":67157,"epoch":"2026-05-25T00:09:55.037664Z","epoch_age_seconds":71590,"freshness":"FRESH","line1":"1 67157U 25301AA  26145.00688701  .00003064  00000+0  43067-3 0  9990","line2":"2 67157  51.9001  83.1368 0000535  80.8582 279.2441 14.79938600 25101","mean_motion":14.799386,"eccentricity":5.35e-5,"inclination_deg":51.9001,"raan_deg":83.1368,"arg_perigee_deg":80.8582,"mean_anomaly_deg":279.2441,"bstar":0.00043067,"rev_number":2510,"period_min":97.301333987775,"perigee_km":629.14304187852,"apogee_km":629.89286095832,"semimajor_km":7007.6549514184,"source":"CELESTRAK","updated_at":"2026-05-25T13:38:06.779776Z"}}